World > North America > United States > Illinois > Beach Park  

Beach Park, IL Hourly Weather Updates

Feedback E-mail the Weather

Quick Clicks

Beach Park, IL Weather Maps

°F °C°F °C
Beach Park Weather Map
UTC Time: 4/22/2024, 16:19
Your Time:

Beach Park, IL Regional Weather

Expires:202404221700;;191611
ASUS43 KLOT 221610
RWRIL 

ILLINOIS REGIONAL WEATHER ROUNDUP
NATIONAL WEATHER SERVICE CHICAGO/ROMEOVILLE IL
1100 AM CDT MON APR 22 2024

NOTE: "FAIR" INDICATES FEW OR NO CLOUDS BELOW 12,000 FEET WITH NO
SIGNIFICANT WEATHER AND/OR OBSTRUCTIONS TO VISIBILITY.

* THESE STATIONS ARE NOT UNDER NWS QUALITY CONTROL. THEY ALSO MAY NOT
  REPORT WEATHER SUCH AS PRECIPITATION OR FOG.


ILZ005-006-012>014-019>023-221700-
NORTHEAST ILLINOIS
  
CITY           SKY/WX    TMP DP  RH WIND       PRES   REMARKS
CHICAGO-OHARE  MOSUNNY   60  28  29 SW13G18   30.07F TC  16           
CHICAGO-MIDWAY MOSUNNY   62  28  27 SW14      30.09S TC  17           
AURORA         MOSUNNY   61  29  29 SW15G21   30.08F TC  16           
JOLIET*        SUNNY     62  29  28 W8        30.11S TC  17           
WAUKEGAN       SUNNY     63  29  27 SW14      30.05F TC  17           
DUPAGE AIRPORT SUNNY     62  32  32 SW15      30.08S TC  17           
KANKAKEE*      SUNNY     61  26  26 W14G20    30.14S TC  16           
WHEELING       SUNNY     60  26  27 W8G18     30.08F TC  16           
MORRIS*        SUNNY     62  30  30 W12       30.10S TC  16           
ROMEOVILLE*    SUNNY     59  30  33 SW8G16    30.11S TC  15           
LANSING*       SUNNY     61  37  40 SW13      30.11S TC  16           
$$


SKY/WX - Weather  TMP - Temperature  DP - Dew Point  RH - Humidity
WIND - Wind Direction/Speed PRES - Barometric Pressure VSB - Visibility
WCI - Wind Chill Index E13G22 Wind - East Wind 13 mph/Gusts of 22 mph

Trending Headlines

Trending Entertainment Headlines

Beach Park Radar Loop

Use the map search tool if you want to place a location marker on the radar map...

Beach Park Quick Facts

National Two Day Weather Forecast


E-mail the Beach Park Weather Forecast

Voice your opinion or tell us about page issues...